Date String (YYYY-MM-DD hh:mm:ss) UTC,Instrument flags,absolute air pressure of the measurement (hPa),sample flow rate (lpm),inlet stack bypass flow (lpm),air temperature of the measurement (°C),ambient temperature measured by the external sensor (°C),aerosol sample conditioner tube jacket temperature (°C),OPC LED temperature (°C),internal box temperature (°C),relative humidity of the measurement (%),span deviation,mass concentration of particles derived from Lorenz-Mie calculation of OPC scattering (μg/m³),mass concentration of particles derived from Lorenz-Mie calculation of OPC scattering (μg/m³),mass concentration of particles derived from Lorenz-Mie calculation of OPC scattering (μg/m³)
DateTimeUTC,F1_M11,P_M11,Q1_M11,Q2_M11,T1_M11,T2_M11,T3_M11,T4_M11,T5_M11,U1_M11,ZSPAN_M11,X2_M11,X0_M11,X1_M11
2023-09-23 23:00:00,SystemResetWarning,0827.7,5.00,000.00,027.9,025.0,000.0,036.3,029.4,8.1,0000.0,0002.80,0005.62,0002.35
2023-09-23 23:01:00,SystemResetWarning,0827.7,5.01,000.00,027.9,025.5,000.0,036.3,029.5,8.0,0000.0,0002.88,0005.78,0002.36
2023-09-23 23:02:00,SystemResetWarning,0827.7,5.00,000.00,028.0,025.8,000.0,036.3,029.5,8.2,0000.0,0002.90,0005.71,0002.36
2023-09-23 23:03:00,SystemResetWarning,0827.7,4.99,000.00,028.0,026.2,000.0,036.3,029.6,8.2,0000.0,0002.91,0006.52,0002.36
2023-09-23 23:04:00,SystemResetWarning,0827.7,4.98,000.00,028.1,026.5,000.0,036.3,029.7,8.5,0000.0,0002.89,0006.82,0002.34
2023-09-23 23:05:00,SystemResetWarning,0827.7,5.01,000.00,028.1,026.7,000.0,036.4,029.8,8.2,0000.0,0002.90,0006.92,0002.32
2023-09-23 23:06:00,SystemResetWarning,0827.7,5.01,000.00,028.2,027.0,000.0,036.4,029.9,9.1,0000.0,0002.92,0007.04,0002.29
2023-09-23 23:07:00,SystemResetWarning,0827.7,5.00,000.00,028.2,027.1,000.0,036.4,030.0,10.9,0000.0,0002.94,0007.36,0002.31
2023-09-23 23:08:00,SystemResetWarning,0827.8,5.00,000.00,028.3,027.3,000.0,036.4,030.0,11.8,0000.0,0002.96,0006.76,0002.32
2023-09-23 23:09:00,SystemResetWarning,0827.7,4.99,000.00,028.3,027.4,000.0,036.5,030.1,12.0,0000.0,0002.95,0006.41,0002.31
2023-09-23 23:10:00,SystemResetWarning,0827.7,4.99,000.00,028.4,026.7,000.0,036.5,030.0,11.4,0000.0,0002.96,0006.56,0002.33
2023-09-23 23:11:00,SystemResetWarning,0827.7,5.00,000.00,028.2,024.8,000.0,036.4,029.6,11.2,0000.0,0002.95,0006.48,0002.34
2023-09-23 23:12:00,SystemResetWarning,0827.8,5.01,000.00,028.1,024.2,000.0,036.4,029.4,11.1,0000.0,0002.92,0006.33,0002.35
2023-09-23 23:13:00,SystemResetWarning,0827.8,5.02,000.00,028.0,024.5,000.0,036.4,029.4,11.2,0000.0,0002.90,0006.37,0002.36
2023-09-23 23:14:00,SystemResetWarning,0827.9,5.00,000.00,028.0,024.8,000.0,036.4,029.4,11.4,0000.0,0002.89,0005.43,0002.37
2023-09-23 23:15:00,SystemResetWarning,0828.1,4.99,000.00,028.0,025.2,000.0,036.4,029.4,11.7,0000.0,0002.89,0004.99,0002.38
2023-09-23 23:16:00,SystemResetWarning,0828.1,5.00,000.00,028.0,025.6,000.0,036.4,029.5,11.2,0000.0,0002.86,0004.88,0002.38
2023-09-23 23:17:00,SystemResetWarning,0828.1,5.01,000.00,028.0,026.0,000.0,036.4,029.6,11.0,0000.0,0002.80,0004.68,0002.39
2023-09-23 23:18:00,SystemResetWarning,0828.1,5.00,000.00,028.1,026.3,000.0,036.4,029.7,11.2,0000.0,0002.76,0003.99,0002.38
2023-09-23 23:19:00,SystemResetWarning,0828.2,5.00,000.00,028.1,026.6,000.0,036.4,029.8,10.9,0000.0,0002.74,0003.89,0002.36
2023-09-23 23:20:00,SystemResetWarning,0828.2,4.99,000.00,028.1,026.8,000.0,036.4,029.9,11.1,0000.0,0002.72,0003.73,0002.36
2023-09-23 23:21:00,SystemResetWarning,0828.2,4.99,000.00,028.2,027.0,000.0,036.4,029.9,11.6,0000.0,0002.74,0003.70,0002.37
2023-09-23 23:22:00,SystemResetWarning,0828.3,5.00,000.00,028.2,027.2,000.0,036.5,030.0,11.2,0000.0,0002.77,0003.83,0002.37
2023-09-23 23:23:00,SystemResetWarning,0828.4,5.00,000.00,028.3,027.4,000.0,036.5,030.1,10.7,0000.0,0002.73,0003.74,0002.37
2023-09-23 23:24:00,SystemResetWarning,0828.4,5.00,000.00,028.4,027.5,000.0,036.5,030.1,10.8,0000.0,0002.70,0003.59,0002.38
2023-09-23 23:25:00,SystemResetWarning,0828.3,4.99,000.00,028.4,026.5,000.0,036.5,030.0,10.8,0000.0,0002.71,0003.53,0002.38
2023-09-23 23:26:00,SystemResetWarning,0828.3,5.00,000.00,028.3,024.5,000.0,036.4,029.6,11.3,0000.0,0002.74,0003.58,0002.38
2023-09-23 23:27:00,SystemResetWarning,0828.2,5.00,000.00,028.1,024.0,000.0,036.4,029.5,11.9,0000.0,0002.74,0003.59,0002.39
2023-09-23 23:28:00,SystemResetWarning,0828.3,5.01,000.00,028.0,024.3,000.0,036.4,029.3,11.9,0000.0,0002.80,0003.87,0002.40
2023-09-23 23:29:00,SystemResetWarning,0828.4,5.00,000.00,028.0,024.7,000.0,036.4,029.4,12.2,0000.0,0002.80,0004.06,0002.40
2023-09-23 23:30:00,SystemResetWarning,0828.4,5.00,000.00,028.0,025.1,000.0,036.4,029.4,12.2,0000.0,0002.80,0004.12,0002.40
2023-09-23 23:31:00,SystemResetWarning,0828.4,5.00,000.00,028.0,025.6,000.0,036.4,029.5,12.1,0000.0,0002.84,0004.27,0002.40
2023-09-23 23:32:00,SystemResetWarning,0828.4,5.00,000.00,028.0,025.9,000.0,036.4,029.6,12.0,0000.0,0002.84,0004.21,0002.41
2023-09-23 23:33:00,SystemResetWarning,0828.5,5.00,000.00,028.0,026.3,000.0,036.4,029.7,12.1,0000.0,0002.82,0004.11,0002.40
2023-09-23 23:34:00,SystemResetWarning,0828.5,5.00,000.00,028.1,026.6,000.0,036.4,029.8,12.0,0000.0,0002.85,0004.19,0002.41
2023-09-23 23:35:00,SystemResetWarning,0828.5,5.00,000.00,028.1,026.8,000.0,036.4,029.8,12.1,0000.0,0002.86,0004.33,0002.39
2023-09-23 23:36:00,SystemResetWarning,0828.6,5.00,000.00,028.2,027.0,000.0,036.5,029.9,12.6,0000.0,0002.84,0004.29,0002.39
2023-09-23 23:37:00,SystemResetWarning,0828.6,4.99,000.00,028.2,027.2,000.0,036.5,030.0,12.5,0000.0,0002.81,0004.23,0002.41
2023-09-23 23:38:00,SystemResetWarning,0828.6,5.00,000.00,028.3,027.4,000.0,036.5,030.1,12.5,0000.0,0002.84,0004.83,0002.42
2023-09-23 23:39:00,SystemResetWarning,0828.5,4.99,000.00,028.4,027.5,000.0,036.5,030.1,12.5,0000.0,0002.82,0005.26,0002.43
2023-09-23 23:40:00,SystemResetWarning,0828.5,4.99,000.00,028.4,026.5,000.0,036.5,029.9,12.6,0000.0,0002.84,0005.23,0002.45
2023-09-23 23:41:00,SystemResetWarning,0828.5,5.00,000.00,028.2,024.6,000.0,036.4,029.5,12.7,0000.0,0002.93,0005.42,0002.48
2023-09-23 23:42:00,SystemResetWarning,0828.5,5.00,000.00,028.1,024.1,000.0,036.4,029.4,13.0,0000.0,0002.95,0005.50,0002.49
2023-09-23 23:43:00,SystemResetWarning,0828.6,5.01,000.00,028.0,024.4,000.0,036.4,029.3,13.2,0000.0,0003.00,0006.13,0002.47
2023-09-23 23:44:00,SystemResetWarning,0828.5,5.00,000.00,028.0,024.8,000.0,036.4,029.4,13.2,0000.0,0003.07,0006.95,0002.46
2023-09-23 23:45:00,SystemResetWarning,0828.6,4.99,000.00,028.0,025.2,000.0,036.4,029.4,13.7,0000.0,0003.10,0008.13,0002.45
2023-09-23 23:46:00,SystemResetWarning,0828.5,5.01,000.00,028.0,025.6,000.0,036.4,029.5,13.4,0000.0,0003.17,0008.53,0002.46
2023-09-23 23:47:00,SystemResetWarning,0828.6,5.01,000.00,028.0,026.0,000.0,036.4,029.6,13.3,0000.0,0003.24,0009.14,0002.46
2023-09-23 23:48:00,SystemResetWarning,0828.6,5.01,000.00,028.1,026.3,000.0,036.4,029.7,13.2,0000.0,0003.30,0009.61,0002.45
2023-09-23 23:49:00,SystemResetWarning,0828.6,5.00,000.00,028.1,026.6,000.0,036.4,029.8,13.1,0000.0,0003.34,0010.67,0002.45
2023-09-23 23:50:00,SystemResetWarning,0828.6,4.99,000.00,028.2,026.8,000.0,036.4,029.9,13.2,0000.0,0003.40,0010.34,0002.48
2023-09-23 23:51:00,SystemResetWarning,0828.6,4.99,000.00,028.2,027.0,000.0,036.4,029.9,13.1,0000.0,0003.46,0011.27,0002.49
2023-09-23 23:52:00,SystemResetWarning,0828.6,5.00,000.00,028.3,027.2,000.0,036.5,030.0,12.8,0000.0,0003.47,0011.67,0002.48
2023-09-23 23:53:00,SystemResetWarning,0828.6,5.01,000.00,028.3,027.4,000.0,036.5,030.1,12.5,0000.0,0003.48,0011.71,0002.48
2023-09-23 23:54:00,SystemResetWarning,0828.6,5.00,000.00,028.4,027.0,000.0,036.5,030.0,12.6,0000.0,0003.50,0011.96,0002.48
2023-09-23 23:55:00,SystemResetWarning,0828.6,4.99,000.00,028.3,025.1,000.0,036.4,029.6,12.7,0000.0,0003.49,0011.86,0002.51
2023-09-23 23:56:00,SystemResetWarning,0828.6,5.00,000.00,028.1,024.0,000.0,036.4,029.4,13.1,0000.0,0003.52,0011.16,0002.52
2023-09-23 23:57:00,SystemResetWarning,0828.6,5.02,000.00,028.0,024.2,000.0,036.3,029.3,13.5,0000.0,0003.51,0010.98,0002.53
2023-09-23 23:58:00,SystemResetWarning,0828.6,5.00,000.00,027.9,024.5,000.0,036.4,029.3,13.7,0000.0,0003.48,0010.73,0002.54
2023-09-23 23:59:00,SystemResetWarning,0828.6,4.99,000.00,027.9,024.9,000.0,036.4,029.4,13.6,0000.0,0003.47,0010.49,0002.53
